Wind_Speed
8 8 8 8 8 8 9 8 7 7 7 9 9 9 8 8 8 8 9 10 9 9 9 10 10 11 10 11 11 11 10 10 11 11 11 12 12 12 13 13 13 14 14 15
9 9 9 9 9 8 8 8 8 8 8 8 8 9 9 9 9 9 9 10 10 10 10 10 11 11 11 12 12 12 11 11 11 11 12 13 13 14 14 15 15 16 16 17
9 9 9 9 9 8 8 9 9 8 9 9 9 10 10 10 9 9 9 9 10 11 11 11 11 12 12 12 12 12 11 11 11 11 12 13 14 15 16 17 17 17 18 19
9 9 10 10 10 9 9 9 10 10 10 10 10 11 11 11 10 9 9 9 10 11 11 12 13 13 13 13 13 13 13 12 13 13 13 14 15 16 16 17 18 18 19 20
10 9 10 11 11 11 11 11 11 12 12 12 12 13 12 12 11 11 11 11 11 11 12 13 14 14 14 13 14 15 15 14 14 15 15 16 16 17 17 19 19 20 20 20
10 10 11 11 11 12 12 12 12 13 13 13 13 14 12 12 12 13 13 13 13 13 14 14 15 15 15 15 15 15 16 16 16 16 16 16 17 18 18 19 20 20 20 20
11 12 12 12 12 13 13 13 13 14 14 14 14 15 14 13 13 14 14 14 14 14 14 15 15 15 16 16 17 17 17 17 17 18 18 17 18 18 19 20 21 21 21 21
12 12 12 12 13 13 14 15 15 15 15 14 15 16 15 15 15 14 15 15 15 15 15 15 15 16 17 17 18 18 18 18 19 19 19 19 19 20 21 21 22 22 23 23
12 13 13 13 14 14 14 15 16 16 16 16 16 16 16 16 16 16 16 16 16 15 15 16 17 17 17 18 19 19 19 20 20 20 20 21 21 21 22 22 23 24 24 24
13 14 14 15 15 15 15 15 16 17 16 17 17 17 16 16 16 17 17 17 16 16 16 17 18 18 19 19 20 20 21 21 22 22 22 22 22 23 23 23 24 25 25 26
14 15 15 15 16 16 16 16 17 17 18 18 18 17 17 17 18 18 18 17 18 18 18 18 19 20 20 21 21 21 22 22 22 23 23 23 24 24 25 25 25 26 26 27
16 16 16 16 16 17 17 17 17 17 18 19 19 18 18 18 19 19 18 18 19 20 20 20 20 21 21 22 22 22 22 23 23 23 23 24 25 26 26 26 27 27 27 27
17 17 16 16 16 16 17 17 17 17 18 19 20 18 18 19 20 19 19 20 20 21 21 21 21 21 22 22 23 23 24 24 24 24 24 25 26 27 27 27 28 28 28 28
18 18 18 17 16 16 17 18 18 18 19 20 19 18 17 18 20 20 20 21 22 23 23 22 22 22 23 24 24 25 25 26 26 26 26 27 28 28 28 29 29 29 29 29
19 18 18 18 18 17 17 18 19 20 20 21 19 19 18 19 20 21 21 22 23 23 23 24 24 25 25 25 26 26 27 27 28 27 28 28 28 28 29 29 29 29 29 29
20 20 19 19 20 19 19 19 20 20 21 21 21 20 20 20 21 22 22 23 23 24 25 25 25 26 27 28 28 28 28 29 29 29 29 29 29 29 30 30 30 30 30 30
21 21 22 21 21 21 21 21 21 21 21 21 22 22 22 22 22 23 23 23 24 25 25 25 26 26 27 28 29 29 29 29 29 30 30 30 30 31 31 30 30 30 30 31
21 22 22 23 22 23 21 21 21 22 22 22 22 23 23 23 23 24 24 25 25 25 25 26 26 26 27 28 29 30 30 31 31 31 31 31 32 32 31 30 30 31 31 31
21 22 23 24 24 23 22 22 22 22 22 22 23 23 23 24 24 24 24 24 25 25 25 26 26 26 27 27 28 29 31 31 32 32 32 32 33 33 32 32 32 32 32 32
21 22 23 24 25 24 22 23 24 24 24 23 24 23 23 24 25 25 25 25 26 26 27 27 27 28 28 28 29 29 30 31 32 33 34 34 34 34 34 34 34 33 33 33
22 22 22 23 25 25 23 24 24 24 25 25 24 24 24 24 25 25 25 25 26 26 27 27 28 28 28 28 29 29 30 32 33 34 35 35 35 35 35 36 36 35 35 34
23 24 23 23 24 24 24 25 25 26 26 26 27 26 26 26 26 26 26 26 26 26 27 27 28 29 29 29 29 30 31 32 33 34 35 36 36 37 37 37 37 37 36 35
24 25 25 25 25 24 25 25 26 26 26 27 28 29 29 28 27 27 27 27 27 27 27 28 28 29 30 30 31 31 32 33 34 34 35 36 37 37 38 38 38 38 37 37
25 26 27 27 27 27 27 27 26 26 27 27 29 29 29 30 29 28 28 28 28 28 29 29 29 29 30 31 31 33 33 34 34 34 35 36 37 38 38 38 38 38 38 37
26 27 27 28 28 28 29 29 28 27 27 28 29 30 30 30 29 29 29 29 29 29 29 29 30 30 31 32 32 33 33 33 34 34 35 36 36 36 37 37 38 39 38 38
26 27 28 28 29 30 31 31 31 29 29 29 29 30 30 30 30 30 30 30 30 30 30 31 32 32 32 33 33 33 34 34 35 35 35 36 35 35 36 37 38 38 38 38
Wind_Direction
232 233 230 231 234 237 239 235 236 250 250 250 254 254 251 252 256 258 263 267 266 264 261 260 262 263 264 267 270 270 275 276 278 279 279 282 283 285 289 290 291 295 295 296
233 232 235 237 237 235 239 242 241 244 245 248 251 253 253 251 254 259 264 265 265 265 264 262 263 265 266 266 268 271 272 275 277 277 279 281 284 285 287 289 291 295 296 295
234 232 237 239 241 239 241 246 249 253 251 253 256 255 254 253 257 262 266 270 271 270 266 264 266 267 266 266 266 267 268 270 274 277 278 281 284 285 288 288 288 291 295 295
239 238 241 243 246 248 247 251 254 255 256 257 258 258 257 257 261 266 266 270 271 269 269 268 268 268 267 267 268 268 269 269 274 276 277 281 284 286 288 288 289 292 294 294
243 242 244 246 249 253 253 254 256 257 258 258 261 262 259 260 263 269 270 272 275 273 272 270 268 267 267 267 269 270 272 273 275 275 277 281 283 285 288 289 292 294 294 295
245 242 243 245 250 253 255 256 258 261 262 260 261 262 261 261 266 269 271 272 274 275 274 272 269 266 265 266 268 270 272 275 278 280 281 283 284 285 288 291 293 294 294 295
247 244 245 245 247 249 254 257 260 261 261 260 261 261 262 268 269 268 269 271 272 271 271 273 271 268 266 267 267 269 272 275 279 283 286 286 286 287 289 292 293 293 292 294
249 246 249 250 250 251 253 256 258 262 263 262 264 264 266 268 269 267 268 269 269 269 269 272 273 272 270 270 269 270 272 275 278 282 286 287 286 288 292 293 293 292 292 293
257 252 250 251 252 254 255 255 259 262 265 266 265 266 265 267 268 268 269 269 269 269 269 271 273 274 273 271 271 272 274 277 278 280 284 287 289 290 292 293 293 292 293 294
263 260 255 254 254 255 258 259 261 262 264 267 268 267 266 266 271 272 270 269 268 269 271 273 273 274 273 272 272 273 274 276 278 279 282 285 288 290 291 292 293 292 293 293
264 264 259 257 255 255 257 258 260 261 262 266 269 268 268 271 273 272 269 269 267 266 267 271 273 272 271 272 273 273 274 276 277 278 281 285 287 288 290 290 292 293 292 293
266 265 262 260 258 257 256 257 258 259 262 265 269 271 271 273 273 271 270 270 270 269 268 270 273 270 269 271 272 273 275 277 278 278 280 284 286 287 289 290 291 291 292 292
265 265 265 261 259 258 258 257 257 259 264 266 268 274 274 272 272 274 273 272 272 273 274 273 272 268 269 270 272 274 277 276 279 279 280 283 284 286 288 290 291 291 291 291
265 265 264 264 265 264 262 261 259 259 262 265 268 273 274 274 275 276 277 277 277 277 277 276 273 270 270 270 271 274 277 278 279 280 281 282 284 285 287 288 290 291 291 290
265 266 265 263 262 263 265 264 261 261 265 270 270 271 273 275 275 277 279 280 282 282 279 277 276 276 274 274 274 275 276 278 278 280 282 283 284 286 288 289 290 291 290 289
266 266 265 263 261 262 266 263 262 262 266 271 272 271 272 273 274 275 277 280 283 284 282 279 279 278 277 276 276 276 277 278 279 280 281 282 285 287 288 289 289 290 289 288
267 267 266 264 263 263 264 262 261 262 266 271 273 272 273 273 274 275 276 278 280 282 280 279 278 278 279 277 276 276 277 278 278 279 280 282 284 286 287 288 289 289 289 289
269 270 269 264 262 262 266 264 263 265 267 270 273 275 274 274 275 276 278 279 280 281 280 279 279 280 281 279 278 277 277 278 277 278 280 282 284 285 287 287 288 287 287 288
271 272 269 266 263 265 265 265 267 268 269 272 274 275 275 275 276 278 280 282 281 280 279 279 279 280 280 280 279 277 277 278 279 280 281 282 282 284 286 286 287 286 286 286
269 270 267 264 264 266 269 266 266 269 270 272 273 275 276 276 276 278 279 280 281 281 281 280 280 281 281 281 280 278 279 280 280 280 280 281 282 282 284 285 285 286 286 284
269 268 265 262 263 265 268 266 268 268 271 271 274 276 278 278 279 279 279 279 280 281 281 281 281 281 281 282 281 280 280 281 282 281 281 281 281 282 283 284 285 285 285 283
270 268 266 263 263 265 268 269 269 270 271 270 271 274 278 279 279 279 280 280 280 280 280 280 280 281 281 282 282 283 283 284 284 284 283 282 281 281 281 282 284 285 284 283
267 267 267 265 266 266 266 269 273 273 272 272 271 274 277 279 280 280 281 280 279 280 280 281 280 281 282 282 284 285 285 286 286 285 284 283 283 283 281 282 282 284 283 282
267 266 266 267 267 266 265 267 270 271 273 275 274 275 278 279 280 281 281 281 281 282 281 282 282 283 283 284 284 285 285 286 287 287 287 286 286 284 283 283 283 283 283 283
267 267 266 266 267 268 268 269 270 273 274 275 276 278 278 279 279 281 281 280 281 281 281 281 282 283 285 286 287 287 286 287 288 288 288 289 289 288 286 284 284 285 284 284
267 267 267 267 268 268 269 270 271 272 274 276 277 278 278 279 280 281 281 281 280 279 280 281 283 284 284 285 286 287 288 288 289 289 290 290 290 289 288 287 286 285 285 285
Height
5840 5841 5841 5841 5842 5842 5843 5843 5844 5844 5844 5844 5844 5845 5845 5845 5845 5845 5846 5846 5846 5847 5847 5847 5847 5847 5847 5847 5847 5847 5847 5847 5847 5846 5846 5846 5845 5844 5843 5842 5841 5840 5839 5838
5838 5838 5839 5839 5840 5840 5840 5841 5842 5843 5842 5842 5842 5842 5843 5843 5843 5843 5843 5843 5843 5843 5843 5844 5844 5843 5843 5844 5843 5843 5844 5844 5844 5843 5843 5843 5842 5841 5840 5839 5838 5836 5835 5833
5835 5837 5836 5837 5837 5838 5838 5839 5839 5840 5839 5839 5840 5840 5840 5840 5840 5840 5840 5840 5840 5840 5840 5840 5840 5840 5840 5840 5840 5840 5840 5840 5840 5840 5839 5839 5838 5837 5836 5835 5833 5832 5831 5829
5832 5833 5834 5834 5835 5835 5836 5836 5836 5836 5836 5837 5837 5837 5837 5837 5837 5837 5837 5837 5836 5836 5836 5836 5836 5837 5837 5837 5837 5836 5837 5837 5837 5836 5836 5835 5834 5833 5832 5831 5829 5827 5826 5824
5829 5830 5830 5831 5832 5832 5833 5833 5833 5833 5833 5834 5833 5832 5834 5833 5833 5833 5833 5833 5833 5833 5832 5832 5832 5833 5833 5833 5833 5833 5833 5833 5833 5832 5832 5831 5830 5829 5828 5826 5824 5823 5821 5819
5826 5826 5827 5827 5828 5829 5829 5830 5830 5830 5830 5830 5830 5829 5829 5829 5829 5829 5829 5829 5829 5829 5828 5828 5828 5828 5828 5828 5828 5828 5828 5828 5828 5827 5827 5826 5825 5824 5823 5821 5820 5818 5816 5814
5822 5823 5823 5824 5824 5825 5825 5826 5826 5825 5825 5826 5826 5824 5825 5825 5825 5825 5825 5824 5824 5824 5824 5823 5823 5823 5823 5824 5824 5824 5824 5824 5824 5823 5822 5821 5820 5819 5818 5816 5815 5813 5811 5808
5818 5819 5819 5820 5820 5821 5821 5822 5822 5822 5821 5821 5820 5819 5821 5820 5820 5820 5820 5819 5819 5819 5819 5819 5819 5819 5819 5819 5819 5819 5819 5819 5819 5818 5817 5816 5815 5814 5813 5811 5809 5807 5805 5803
5814 5815 5816 5815 5816 5816 5816 5817 5818 5817 5816 5816 5815 5815 5816 5815 5815 5815 5814 5814 5813 5813 5814 5814 5813 5813 5813 5813 5813 5814 5814 5813 5813 5813 5812 5811 5809 5808 5806 5805 5803 5801 5799 5796
5810 5811 5811 5811 5811 5812 5812 5812 5812 5812 5811 5810 5810 5810 5811 5810 5810 5809 5809 5809 5808 5808 5808 5808 5808 5808 5808 5808 5808 5808 5808 5808 5807 5807 5806 5805 5804 5802 5800 5798 5796 5794 5792 5789
5806 5806 5807 5806 5806 5807 5807 5807 5806 5806 5806 5805 5805 5808 5806 5805 5805 5804 5804 5803 5803 5803 5803 5803 5803 5803 5803 5802 5802 5802 5802 5802 5801 5801 5800 5799 5797 5796 5794 5792 5789 5787 5785 5782
5801 5801 5801 5801 5801 5801 5801 5801 5801 5802 5801 5800 5800 5804 5801 5800 5800 5799 5799 5798 5797 5797 5797 5797 5797 5796 5796 5796 5796 5796 5795 5795 5795 5794 5793 5792 5791 5789 5787 5785 5783 5780 5778 5775
5795 5795 5796 5796 5798 5797 5796 5796 5796 5796 5796 5795 5795 5799 5796 5795 5794 5794 5793 5792 5792 5791 5791 5791 5791 5791 5790 5790 5790 5790 5789 5789 5788 5787 5786 5785 5784 5782 5780 5778 5775 5773 5770 5768
5790 5789 5790 5791 5791 5791 5790 5790 5791 5791 5790 5790 5791 5791 5791 5790 5789 5788 5787 5787 5786 5785 5785 5785 5784 5784 5784 5784 5783 5783 5782 5782 5781 5780 5779 5778 5776 5774 5772 5770 5767 5765 5762 5759
5784 5784 5783 5784 5784 5785 5785 5785 5785 5785 5785 5785 5786 5785 5786 5784 5783 5783 5782 5781 5780 5779 5779 5778 5778 5777 5777 5776 5776 5775 5775 5774 5773 5772 5771 5770 5768 5766 5764 5762 5759 5757 5754 5751
5777 5778 5778 5778 5779 5779 5779 5779 5779 5779 5779 5779 5779 5780 5779 5778 5777 5777 5776 5775 5774 5773 5772 5771 5770 5770 5769 5768 5768 5767 5766 5765 5765 5764 5763 5761 5759 5757 5755 5753 5751 5748 5746 5743
5772 5772 5772 5773 5773 5773 5773 5774 5773 5773 5773 5773 5772 5774 5773 5772 5771 5770 5769 5768 5767 5766 5765 5764 5763 5762 5761 5760 5759 5759 5758 5757 5756 5756 5754 5753 5751 5749 5746 5744 5742 5739 5737 5734
5766 5766 5765 5766 5767 5766 5770 5768 5768 5767 5767 5767 5766 5766 5766 5765 5764 5763 5762 5761 5760 5759 5757 5756 5756 5754 5753 5752 5751 5750 5749 5748 5748 5747 5745 5744 5742 5740 5738 5735 5733 5731 5728 5725
5759 5759 5758 5759 5758 5759 5762 5762 5761 5761 5761 5761 5760 5759 5759 5758 5757 5756 5755 5754 5752 5751 5750 5749 5748 5746 5745 5744 5742 5741 5740 5739 5738 5737 5736 5734 5733 5731 5729 5726 5724 5721 5719 5716
5752 5751 5752 5751 5751 5752 5756 5755 5754 5755 5754 5754 5753 5752 5752 5751 5751 5750 5748 5747 5745 5743 5742 5740 5739 5738 5737 5736 5734 5733 5732 5730 5729 5728 5726 5725 5723 5721 5719 5717 5714 5712 5709 5707
5746 5745 5745 5744 5744 5745 5748 5747 5747 5748 5748 5747 5746 5745 5745 5744 5743 5742 5740 5739 5737 5736 5734 5732 5731 5730 5728 5727 5726 5724 5723 5721 5720 5718 5716 5714 5712 5711 5709 5706 5704 5701 5699 5696
5738 5738 5738 5737 5738 5741 5740 5740 5740 5740 5739 5738 5738 5738 5737 5736 5734 5733 5732 5731 5730 5728 5726 5724 5723 5721 5720 5719 5717 5716 5714 5712 5710 5708 5706 5704 5702 5700 5698 5696 5693 5690 5688 5686
5731 5732 5731 5732 5733 5732 5732 5732 5731 5731 5731 5730 5730 5730 5729 5728 5726 5725 5724 5723 5721 5720 5718 5716 5715 5713 5711 5710 5708 5706 5705 5703 5700 5698 5695 5693 5691 5689 5687 5684 5682 5680 5677 5675
5724 5724 5723 5723 5724 5724 5724 5724 5724 5723 5723 5722 5722 5721 5720 5719 5718 5717 5716 5714 5713 5712 5710 5708 5706 5705 5703 5701 5699 5697 5695 5693 5691 5688 5685 5682 5680 5678 5675 5673 5671 5669 5666 5664
5717 5716 5715 5716 5716 5716 5715 5715 5716 5715 5715 5714 5714 5713 5712 5710 5709 5708 5707 5706 5704 5703 5701 5700 5698 5696 5694 5692 5689 5687 5685 5683 5680 5678 5675 5672 5669 5667 5664 5662 5659 5657 5655 5652
5709 5708 5707 5708 5708 5708 5707 5707 5707 5706 5706 5706 5705 5704 5703 5702 5701 5699 5698 5697 5695 5694 5692 5691 5689 5687 5685 5683 5680 5678 5676 5673 5670 5668 5665 5662 5659 5656 5654 5651 5648 5645 5643 5641